Weather in Craiova

Romania     44°19′06″N   23°48′19″E
temp.,
°C
wind,
m/s
gust,
m/s
humid.,
%
clouds,
%
prec.,
mm/h
press.,
hPa
HPBL,
m
29 july, thu
thu2900:00+26e4104246 0.0 1013151
03:00+23ne45552 0.0 101368
06:00+21ne34672 0.0 101358
09:00+27ne11465 0.0 1014316
12:00+34w33294 0.0 10131030
15:00+39sw461825 0.0 10112470
18:00+36wsw10112266 0.0 10101002
21:00+31nw34265 0.0 101032
30 july, fri
fri3000:00+25ese474375 0.0 1011105
03:00+23ne34544 0.0 101145
06:00+21ne33620 0.0 101132
09:00+28ese35450 0.0 1012484
12:00+34ese44310 0.0 10111272
15:00+37e43240 0.0 10092215
18:00+38ese34211 0.0 10072848
21:00+31e47330 0.0 100786
31 july, sat
sat3100:00+26e818552 0.0 1009513
03:00+24nne48630 0.0 1010208
06:00+22ne496653 0.0 1010229
09:00+27e454766 0.0 1011528
12:00+32e45345 0.0 1010968
15:00+37ese44240 0.0 10071553
18:00+38e33210 0.0 10062772
21:00+25ne918530 0.0 1008354
1 august, sun
sun100:00+23ene613704 0.4 1010216
03:00+21wnw33790 0.4 101049
06:00+20ne22805 0.0 101127
09:00+27ene23500 0.0 1011416
12:00+33e32330 0.0 10101012
15:00+38se33230 0.0 10081927
18:00+40s24170 0.0 10063570
21:00+32se34269 0.0 100630
2 august, mon
mon200:00+30se512341 0.0 1006202
03:00+25ene34450 0.0 100755
06:00+23ene33550 0.0 100737
09:00+29wsw224150 0.0 1008353
12:00+37w67190 0.0 10081551
15:00+37w910210 0.0 10081803
18:00+37wnw1011160 0.0 10072008
21:00+28w33230 0.0 100932